Location: *
(57.8420°S, 159.8600°W)
Time: 03:13:27
(UTC+00:00)

SJ 16-02 - Pass Details

Date: 18 May 2021
Orbit: 606 x 616 km, 75.0° (Epoch: 18 June)

Event Time Altitude Azimuth Distance (km) Brightness Sun altitude
Rises 04:40:51 0° 210° (SSW) 2,918 5.1 -17.1°
Reaches altitude 10° 04:43:07 10° 213° (SSW) 2,008 4.3 -17.4°
Maximum altitude 04:47:32 59° 291° (WNW) 727 2.0 -18.0°
Drops below altitude 10° 04:51:55 10° 10° (N) 1,991 3.9 -18.6°
Sets 04:54:10 0° 13° (NNE) 2,890 4.7 -18.9°
